TimeEDT,TemperatureF,Dew PointF,Humidity,Sea Level PressureIn,VisibilityMPH,Wind Direction,Wind SpeedMPH,Gust SpeedMPH,PrecipitationIn,Events,Conditions,WindDirDegrees,DateUTC
12:15 AM,69.8,62.6,78,30.10,10.0,Calm,Calm,-,N/A,,Clear,0,2013-09-07 04:15:00
12:35 AM,69.8,60.8,73,30.10,10.0,Calm,Calm,-,N/A,,Clear,0,2013-09-07 04:35:00
12:55 AM,68.0,60.8,78,30.10,10.0,Calm,Calm,-,N/A,,Clear,0,2013-09-07 04:55:00
1:15 AM,66.2,60.8,83,30.10,10.0,NNE,4.6,-,N/A,,Clear,30,2013-09-07 05:15:00
1:35 AM,66.2,59.0,78,30.10,10.0,NNE,3.5,-,N/A,,Clear,30,2013-09-07 05:35:00
1:55 AM,66.2,59.0,78,30.09,10.0,Calm,Calm,-,N/A,,Clear,0,2013-09-07 05:55:00
2:15 AM,66.2,59.0,78,30.09,10.0,NNE,4.6,-,N/A,,Clear,20,2013-09-07 06:15:00
2:35 AM,64.4,59.0,83,30.09,10.0,Calm,Calm,-,N/A,,Clear,0,2013-09-07 06:35:00
2:55 AM,64.4,57.2,77,30.09,10.0,Calm,Calm,-,N/A,,Clear,0,2013-09-07 06:55:00
3:15 AM,64.4,55.4,73,30.09,10.0,North,3.5,-,N/A,,Clear,10,2013-09-07 07:15:00
3:35 AM,62.6,55.4,77,30.09,10.0,Calm,Calm,-,N/A,,Clear,0,2013-09-07 07:35:00
3:55 AM,64.4,55.4,73,30.09,10.0,Calm,Calm,-,N/A,,Clear,0,2013-09-07 07:55:00
4:15 AM,64.4,53.6,68,30.09,10.0,NNE,3.5,-,N/A,,Clear,30,2013-09-07 08:15:00
4:35 AM,62.6,53.6,72,30.09,7.0,NNE,3.5,-,N/A,,Clear,30,2013-09-07 08:35:00
4:55 AM,62.6,53.6,72,30.09,7.0,NE,4.6,-,N/A,,Clear,40,2013-09-07 08:55:00
5:15 AM,62.6,55.4,77,30.09,7.0,NE,3.5,-,N/A,,Clear,40,2013-09-07 09:15:00
5:35 AM,62.6,50.0,63,30.10,7.0,Calm,Calm,-,N/A,,Clear,0,2013-09-07 09:35:00
5:55 AM,64.4,51.8,64,30.10,7.0,NE,3.5,-,N/A,,Clear,50,2013-09-07 09:55:00
6:15 AM,62.6,51.8,68,30.10,7.0,NE,4.6,-,N/A,,Clear,50,2013-09-07 10:15:00
6:35 AM,64.4,51.8,64,30.11,7.0,NNE,5.8,-,N/A,,Mostly Cloudy,30,2013-09-07 10:35:00
6:55 AM,64.4,46.4,52,30.11,10.0,NE,4.6,-,N/A,,Mostly Cloudy,40,2013-09-07 10:55:00
7:15 AM,64.4,46.4,52,30.11,7.0,ENE,5.8,-,N/A,,Scattered Clouds,60,2013-09-07 11:15:00
7:35 AM,64.4,42.8,45,30.12,10.0,NNE,3.5,-,N/A,,Clear,20,2013-09-07 11:35:00
7:55 AM,66.2,44.6,46,30.12,10.0,NNE,3.5,-,N/A,,Clear,30,2013-09-07 11:55:00
8:15 AM,68.0,44.6,43,30.12,10.0,NNE,3.5,-,N/A,,Clear,30,2013-09-07 12:15:00
8:35 AM,69.8,41.0,35,30.12,10.0,NE,3.5,-,N/A,,Clear,40,2013-09-07 12:35:00
8:55 AM,71.6,51.8,50,30.12,10.0,NE,4.6,-,N/A,,Clear,40,2013-09-07 12:55:00
9:15 AM,73.4,53.6,50,30.12,10.0,NE,3.5,-,N/A,,Clear,40,2013-09-07 13:15:00
9:35 AM,73.4,53.6,50,30.13,10.0,ENE,5.8,-,N/A,,Clear,70,2013-09-07 13:35:00
9:55 AM,77.0,55.4,47,30.12,10.0,Calm,Calm,-,N/A,,Clear,0,2013-09-07 13:55:00
10:15 AM,77.0,55.4,47,30.12,10.0,Calm,Calm,-,N/A,,Clear,0,2013-09-07 14:15:00
10:35 AM,77.0,57.2,50,30.12,10.0,North,3.5,-,N/A,,Clear,350,2013-09-07 14:35:00
10:55 AM,78.8,55.4,44,30.12,10.0,Calm,Calm,-,N/A,,Clear,0,2013-09-07 14:55:00
11:15 AM,80.6,59.0,48,30.12,10.0,ENE,3.5,-,N/A,,Clear,70,2013-09-07 15:15:00
11:35 AM,80.6,57.2,45,30.11,10.0,Calm,Calm,-,N/A,,Clear,0,2013-09-07 15:35:00
11:55 AM,82.4,57.2,42,30.11,10.0,Calm,Calm,-,N/A,,Scattered Clouds,0,2013-09-07 15:55:00
12:15 PM,82.4,57.2,42,30.10,10.0,NNE,3.5,-,N/A,,Scattered Clouds,20,2013-09-07 16:15:00
12:35 PM,82.4,57.2,42,30.09,10.0,NW,4.6,-,N/A,,Clear,310,2013-09-07 16:35:00
12:55 PM,84.2,55.4,37,30.08,10.0,NE,4.6,-,N/A,,Clear,40,2013-09-07 16:55:00
1:15 PM,84.2,55.4,37,30.08,10.0,Calm,Calm,-,N/A,,Clear,0,2013-09-07 17:15:00
1:35 PM,86.0,55.4,35,30.07,10.0,SE,8.1,-,N/A,,Clear,130,2013-09-07 17:35:00
1:55 PM,86.0,55.4,35,30.07,10.0,SSE,4.6,-,N/A,,Clear,160,2013-09-07 17:55:00
2:15 PM,87.8,57.2,35,30.06,10.0,South,4.6,-,N/A,,Clear,190,2013-09-07 18:15:00
2:35 PM,86.0,57.2,37,30.05,10.0,SSE,4.6,-,N/A,,Clear,160,2013-09-07 18:35:00
2:55 PM,87.8,59.0,38,30.04,10.0,SSW,4.6,-,N/A,,Clear,200,2013-09-07 18:55:00
3:15 PM,87.8,59.0,38,30.03,10.0,SE,3.5,-,N/A,,Clear,140,2013-09-07 19:15:00
3:35 PM,87.8,59.0,38,30.03,10.0,West,3.5,-,N/A,,Clear,270,2013-09-07 19:35:00
3:55 PM,87.8,59.0,38,30.01,10.0,NNW,3.5,-,N/A,,Clear,330,2013-09-07 19:55:00
4:15 PM,87.8,59.0,38,30.01,10.0,NW,5.8,-,N/A,,Clear,310,2013-09-07 20:15:00
4:35 PM,87.8,59.0,38,30.01,10.0,WSW,4.6,-,N/A,,Clear,250,2013-09-07 20:35:00
4:55 PM,87.8,60.8,40,30.01,10.0,NW,5.8,-,N/A,,Clear,320,2013-09-07 20:55:00
5:15 PM,87.8,60.8,40,30.00,10.0,WNW,5.8,-,N/A,,Clear,300,2013-09-07 21:15:00
5:35 PM,87.8,60.8,40,30.00,10.0,WNW,4.6,-,N/A,,Clear,290,2013-09-07 21:35:00
5:55 PM,87.8,60.8,40,30.00,10.0,WNW,4.6,-,N/A,,Clear,300,2013-09-07 21:55:00
6:15 PM,86.0,60.8,43,29.99,10.0,Calm,Calm,-,N/A,,Clear,0,2013-09-07 22:15:00
6:35 PM,84.2,62.6,48,29.99,10.0,NNW,3.5,-,N/A,,Clear,330,2013-09-07 22:35:00
6:55 PM,82.4,62.6,51,29.99,10.0,Calm,Calm,-,N/A,,Clear,0,2013-09-07 22:55:00
7:15 PM,80.6,62.6,54,29.99,10.0,Calm,Calm,-,N/A,,Clear,0,2013-09-07 23:15:00
7:35 PM,78.8,62.6,57,29.99,10.0,Calm,Calm,-,N/A,,Clear,0,2013-09-07 23:35:00
7:55 PM,73.4,64.4,73,29.99,10.0,South,4.6,-,N/A,,Clear,180,2013-09-07 23:55:00
8:15 PM,77.0,62.6,61,29.99,10.0,Calm,Calm,-,N/A,,Clear,0,2013-09-08 00:15:00
8:35 PM,71.6,62.6,73,30.00,10.0,Calm,Calm,-,N/A,,Clear,0,2013-09-08 00:35:00
8:55 PM,71.6,60.8,69,30.00,10.0,Calm,Calm,-,N/A,,Clear,0,2013-09-08 00:55:00
9:15 PM,69.8,59.0,68,30.00,7.0,Calm,Calm,-,N/A,,Clear,0,2013-09-08 01:15:00
9:35 PM,69.8,50.0,49,30.01,7.0,Calm,Calm,-,N/A,,Clear,0,2013-09-08 01:35:00
9:55 PM,68.0,41.0,37,30.01,7.0,Calm,Calm,-,N/A,,Clear,0,2013-09-08 01:55:00
10:15 PM,68.0,42.8,40,30.01,10.0,Calm,Calm,-,N/A,,Clear,0,2013-09-08 02:15:00
10:35 PM,68.0,-9999,N/A,30.01,10.0,Calm,Calm,-,N/A,,Clear,0,2013-09-08 02:35:00
10:55 PM,66.2,-9999,N/A,30.01,10.0,Calm,Calm,-,N/A,,Clear,0,2013-09-08 02:55:00
11:15 PM,64.4,-9999,N/A,30.00,10.0,Calm,Calm,-,N/A,,Clear,0,2013-09-08 03:15:00
11:35 PM,66.2,-9999,N/A,30.00,10.0,Calm,Calm,-,N/A,,Clear,0,2013-09-08 03:35:00
11:55 PM,64.4,-9999,N/A,30.00,7.0,Calm,Calm,-,N/A,,Clear,0,2013-09-08 03:55:00